Cloud_Cover
0 0 0 5 5 2 12 16 9 24 15 20 6 0 0 0 0 0 1 0 0 0 0 0 4 5 10 5 0 0 0 0 90 94 12 1 0 0 0 0 0 0 2 63 91
0 0 0 1 3 1 1 2 8 4 3 23 8 0 0 1 0 0 0 0 0 0 0 1 0 0 5 5 5 2 0 0 9 98 56 5 1 0 0 0 0 30 11 76 100
0 0 0 0 5 5 5 19 0 0 0 4 2 0 0 1 0 0 0 0 0 0 0 0 4 0 0 1 0 0 3 4 0 5 6 5 5 0 0 0 0 45 100 100 55
0 1 2 0 0 4 0 5 7 5 5 0 0 0 0 0 0 0 0 0 0 0 0 0 0 0 0 0 0 0 5 10 4 1 0 0 0 0 0 0 48 100 100 58 20
0 5 0 0 0 0 2 5 5 6 16 8 0 0 1 0 0 0 0 0 0 0 0 0 0 0 0 0 0 0 0 0 0 0 0 0 0 0 5 72 100 96 100 52 46
0 5 0 0 0 0 5 5 5 18 16 8 0 23 0 0 0 0 0 0 0 0 0 0 0 0 0 0 0 0 0 0 0 0 0 0 0 0 96 29 38 67 99 74 78
0 0 5 0 0 2 5 5 5 34 25 1 0 0 0 0 0 0 0 0 0 0 0 0 0 0 0 0 0 0 0 0 0 0 0 0 0 24 80 71 21 34 22 22 35
5 1 5 0 0 0 5 3 5 3 6 1 2 0 0 0 0 0 0 0 0 0 0 0 0 0 0 0 0 0 0 0 0 0 0 0 1 100 100 56 23 2 0 8 1
4 3 4 5 2 0 5 3 0 0 4 5 5 2 0 0 0 0 0 0 0 0 0 0 0 0 0 0 0 0 0 0 0 0 0 0 8 100 100 85 44 0 0 0 0
5 0 3 5 5 3 7 9 0 20 5 5 5 5 5 0 0 0 0 0 0 0 0 0 0 0 0 0 0 0 0 0 0 0 0 0 4 99 100 100 41 7 0 0 0
5 5 1 1 5 5 13 0 3 5 5 5 5 5 5 5 4 0 0 0 0 0 0 0 0 0 0 0 0 0 0 0 0 0 0 0 24 100 100 100 78 7 0 0 0
5 5 5 8 0 5 11 1 0 3 4 5 5 5 5 5 5 5 0 0 0 0 0 0 0 0 0 0 0 0 0 0 0 0 0 0 12 78 95 100 63 33 0 0 0
1 1 5 5 4 5 5 6 1 0 0 4 5 5 5 5 5 5 5 0 0 0 0 0 0 0 0 0 0 0 0 0 0 0 0 0 0 0 37 97 88 22 0 0 0
0 10 22 78 5 5 5 3 5 5 5 5 5 5 5 5 4 0 5 0 0 0 0 0 0 0 0 0 0 0 0 0 0 0 38 0 59 0 1 40 62 20 0 0 0
0 0 71 94 1 24 5 5 5 5 5 5 7 5 5 5 5 0 0 0 0 0 0 0 0 0 0 0 0 2 0 0 0 0 0 1 0 5 0 0 0 0 22 0 3
0 0 36 0 0 0 3 4 5 5 5 5 5 5 5 5 4 0 0 0 0 0 0 0 0 0 0 0 0 0 0 0 0 0 0 32 0 46 0 0 0 6 44 29 0
0 0 66 0 0 0 0 0 3 5 2 1 5 0 0 0 0 0 0 0 0 0 0 0 0 0 0 0 0 0 0 4 23 48 49 0 0 3 0 0 0 0 23 43 36
0 18 14 0 0 0 0 0 0 5 5 5 0 0 0 0 0 0 0 0 0 0 0 0 0 0 0 0 0 0 0 13 100 99 100 0 0 48 0 0 0 0 0 14 43
0 0 0 0 0 0 0 0 0 0 0 5 5 5 5 0 0 0 0 5 4 0 0 3 4 0 0 0 0 0 0 3 0 1 0 4 1 0 0 0 0 0 0 0 3
0 0 0 0 0 0 0 0 0 0 0 0 0 5 5 5 6 5 5 5 5 5 0 2 5 0 0 0 0 0 25 4 38 63 40 91 5 19 0 0 0 0 0 0 0
0 0 0 0 0 0 0 0 0 0 0 0 0 0 4 5 3 5 5 5 5 0 0 0 0 1 0 0 4 0 0 0 4 3 94 78 94 5 0 0 0 0 0 0 0
0 0 0 0 0 0 0 0 0 0 0 0 0 0 0 0 0 0 0 0 0 0 0 0 0 23 0 0 0 0 53 23 46 97 4 0 0 0 0 0 0 0 0 0 0
0 0 0 0 2 3 0 0 0 0 0 0 0 1 0 0 0 0 0 4 0 0 0 0 0 18 0 0 0 0 0 0 0 0 0 2 2 0 0 0 0 0 0 0 0
0 0 0 0 0 2 0 0 1 0 0 0 1 3 5 5 3 0 0 0 0 0 0 0 4 4 62 21 68 0 0 0 0 0 18 8 4 5 2 0 0 0 0 0 0
0 0 0 1 3 2 2 0 0 12 2 0 0 4 52 51 69 59 5 5 1 0 0 0 0 1 42 37 20 4 1 0 0 0 3 0 1 1 0 0 0 0 0 0 0
0 0 0 0 5 0 5 48 7 20 5 32 0 5 83 67 96 100 100 34 80 78 100 6 5 2 0 3 5 0 0 0 0 5 5 5 4 2 5 5 0 3 0 0 0
3 4 92 0 1 4 4 5 5 5 66 5 2 0 100 69 74 41 5 27 58 100 100 100 56 99 80 5 5 1 5 5 5 44 24 5 7 37 19 24 7 5 2 0 0